Regional Weather Roundup
Issued by NWS

Home | Current Version | Previous Version | Text Only | Print | Product List | Glossary Off
Versions: 1 2 3 4 5 6 7 8 9 10 11 12 13 14 15 16 17 18 19 20 21 22 23 24 25 26 27 28 29 30 31 32 33 34 35 36 37 38 39 40 41 42 43 44 45 46 47 48 49 50

617
ASUS44 KJAN 170610
RWRMS

MISSISSIPPI HOURLY WEATHER ROUNDUP
NATIONAL WEATHER SERVICE JACKSON MS
100 AM CDT THU APR 17 2014

NOTE: "FAIR: INDICATES FEW OR NO CLOUDS BELOW 12,000 FEET WITH NO
SIGNIFICANT WEATHER AND/OR OBSTRUCTIONS TO VISIBILITY.

MSZ001>002-007>008-010>013-018>021-025>028-034>036-170700-
NORTHWEST MISSISSIPPI

CITY           SKY/WX    TMP DP  RH WIND       PRES   REMARKS
CLARKSDALE       N/A     46  45  93 CALM      30.20S
CLEVELAND      FAIR      45  43  93 CALM      30.18R
GREENWOOD      FAIR      45  39  79 CALM      30.19S
6HR MIN TEMP:  43; 6HR MAX TEMP:  59;

GREENVILLE     FAIR      46  44  93 CALM      30.17R
6HR MIN TEMP:  46; 6HR MAX TEMP:  59;

GRENADA        FAIR      41  39  93 CALM      30.20R
OLIVE BRANCH   CLEAR     46  32  57 CALM      30.20R
OXFORD         FAIR      41  36  81 CALM      30.22R
TUNICA         FAIR      45  41  87 CALM      30.21R
$$

MSZ003>006-009-014>017-022>024-029>033-037>039-170700-
NORTHEAST MISSISSIPPI

CITY           SKY/WX    TMP DP  RH WIND       PRES   REMARKS
BELMONT        FAIR      42  38  86 CALM      30.22S
COLUMBUS AFB   FAIR      46  39  77 CALM      30.22R
6HR MIN TEMP:  46; 6HR MAX TEMP:  60;

CORINTH        FAIR      41  37  87 CALM      30.22R
GOLDN TRIANGLE FAIR      48  37  66 SE6       30.23S
STARKVILLE     FAIR      43  39  87 CALM      30.21R
TUPELO         FAIR      42  39  89 CALM      30.22R
6HR MIN TEMP:  42; 6HR MAX TEMP:  59;

$$

MSZ040-058-170700-
CENTRAL MISSISSIPPI

CITY           SKY/WX    TMP DP  RH WIND       PRES   REMARKS
JACKSON INTL   FAIR      46  39  76 CALM      30.17R
6HR MIN TEMP:  44; 6HR MAX TEMP:  62;

JACKSON HAWKNS FAIR      48  38  68 CALM      30.17R
6HR MIN TEMP:  47; 6HR MAX TEMP:  62;

MERIDIAN KEY   FAIR      43  41  93 CALM      30.19R
6HR MIN TEMP:  43; 6HR MAX TEMP:  62;

MERIDIAN NAS   FAIR      45  41  86 CALM      30.20R
6HR MIN TEMP:  45; 6HR MAX TEMP:  59;

RAYMOND        FAIR      41  37  87 MISG      30.17R
VICKSBURG      FAIR      52  44  74 E3        30.17R
6HR MIN TEMP:  51; 6HR MAX TEMP:  63;

$$

MSZ059>079-170700-
SOUTH MISSISSIPPI

CITY           SKY/WX    TMP DP  RH WIND       PRES   REMARKS
BROOKHAVEN     FAIR      46  43  87 CALM      30.18S
COLUMBIA       FAIR      41  41 100 MISG      30.17R
HATTIESBURG    FAIR      44  43  96 CALM      30.18F
6HR MIN TEMP:  44; 6HR MAX TEMP:  65;

MCCOMB         FAIR      45  41  86 CALM      30.16S
6HR MIN TEMP:  44; 6HR MAX TEMP:  62;

NATCHEZ        FAIR      45  39  81 SE6       30.15S
6HR MIN TEMP:  45; 6HR MAX TEMP:  63;

PINE BELT      FAIR      45  39  81 CALM      30.18S
6HR MIN TEMP:  45; 6HR MAX TEMP:  63;

$$

MSZ080>082-170700-
COASTAL MISSISSIPPI

CITY           SKY/WX    TMP DP  RH WIND       PRES   REMARKS
BILOXI         FAIR      49  47  93 NE5       30.17S
6HR MIN TEMP:  49; 6HR MAX TEMP:  56;

PASCAGOULA     FAIR      46  45  96 CALM      30.17S
6HR MIN TEMP:  46; 6HR MAX TEMP:  57;

GULFPORT       FAIR      51  46  83 N3        30.16S
6HR MIN TEMP:  49; 6HR MAX TEMP:  59;

$$



USA.gov is the U.S. government's official web portal to all federal, state and local government web resources and services.